Windsor Locks, CT

1:48 AM EDT on March 27, 2017 (GMT -0400)
Bradley International

Weather History for KBDL - February, 2012

Change the Weather History Date:

Sunday, February 12, 2012

  Actual Average Record
Temperature  
Mean Temperature 22 °F 29 °F  
Max Temperature 29 °F 38 °F 54 °F (1984)
Min Temperature 14 °F 20 °F -13 °F (1979)
Degree Days  
Heating Degree Days 43 36  
Month to date heating degree days 360 444  
Since 1 July heating degree days 3195 3894  
Cooling Degree Days 0 0  
Month to date cooling degree days 0 0  
Year to date cooling degree days 0 0  
Moisture  
Dew Point 2 °F    
Average Humidity 46    
Maximum Humidity 55    
Minimum Humidity 37    
Precipitation  
Precipitation 0.00 in 0.10 in 1.82 in (1988)
Month to date precipitation T 1.22  
Year to date precipitation 2.96 4.45  
Snow  
Snow 0.00 in 0.40 in 21.90 in (2006)
Month to date snowfall T 5.2  
Since 1 July snowfall 19.1 26.9  
Snow Depth -    
Sea Level Pressure  
Sea Level Pressure 29.78 in    
Wind  
Wind Speed 16 mph (NW)    
Max Wind Speed 28 mph    
Max Gust Speed 37 mph    
Visibility 10 miles    
Events      
T = Trace of Precipitation, MM = Missing Value Source: NWS Daily Summary

Daily Weather History Graph

Daily Weather History Graph

Search for Another Location

Airport or City:

Trip Planner

Search our weather history database for the weather conditions in past years. The results will help you decide how hot, cold, wet, or windy it might be!

Date:

Astronomy

Feb. 12, 2012 Rise Set
Actual Time 6:51 AM EST 5:19 PM EST
Civil Twilight 6:22 AM EST 5:48 PM EST
Nautical Twilight 5:49 AM EST 6:20 PM EST
Astronomical Twilight 5:17 AM EST 6:53 PM EST
Moon 11:21 PM EST (2/12) 9:01 AM EST (2/12)
Length of Visible Light 11h 25m
Length of Day
10h 28m
Waning Gibbous, 72% of the Moon is Illuminated
Feb 12
Waning Gibbous
Feb 14
Last Quarter
Feb 21
New
Feb 29
First Quarter
Mar 8
Full

Hourly Weather History & Observations

Time (EST) Temp. Windchill Dew Point Humidity Pressure Visibility Wind Dir Wind Speed Gust Speed Precip Events Conditions
12:51 AM 24.1 °F 10.6 °F 9.0 °F 53% 29.66 in 10.0 mi NW 17.3 mph 26.5 mph N/A   Mostly Cloudy
1:51 AM 21.0 °F 6.6 °F 1.0 °F 42% 29.70 in 10.0 mi NNW 17.3 mph 32.2 mph N/A   Mostly Cloudy
2:51 AM 19.0 °F 3.6 °F 1.9 °F 47% 29.71 in 10.0 mi NNW 18.4 mph 29.9 mph N/A   Mostly Cloudy
3:51 AM 18.0 °F 2.6 °F -0.0 °F 45% 29.73 in 10.0 mi NNW 17.3 mph 23.0 mph N/A   Mostly Cloudy
4:51 AM 17.1 °F 4.3 °F -0.0 °F 47% 29.74 in 10.0 mi NNW 11.5 mph - N/A   Mostly Cloudy
5:51 AM 14.0 °F 1.2 °F -0.9 °F 52% 29.76 in 10.0 mi WNW 10.4 mph - N/A   Scattered Clouds
6:51 AM 14.0 °F -2.5 °F -2.9 °F 47% 29.77 in 10.0 mi WNW 17.3 mph 24.2 mph N/A   Partly Cloudy
7:51 AM 16.0 °F -0.4 °F -2.0 °F 45% 29.78 in 10.0 mi NW 18.4 mph 24.2 mph N/A   Scattered Clouds
8:51 AM 18.0 °F 2.2 °F -2.0 °F 41% 29.79 in 10.0 mi NW 18.4 mph 23.0 mph N/A   Mostly Cloudy
9:51 AM 19.9 °F 7.9 °F -0.9 °F 40% 29.78 in 10.0 mi NW 11.5 mph - N/A   Mostly Cloudy
10:51 AM 21.9 °F 8.2 °F 1.0 °F 40% 29.78 in 10.0 mi WNW 16.1 mph 26.5 mph N/A   Mostly Cloudy
11:51 AM 21.0 °F 9.3 °F 3.0 °F 46% 29.76 in 10.0 mi WNW 11.5 mph - N/A   Mostly Cloudy
12:51 PM 27.0 °F 12.8 °F 3.9 °F 37% 29.73 in 10.0 mi NW 21.9 mph 29.9 mph N/A   Scattered Clouds
1:51 PM 27.0 °F 13.9 °F 5.0 °F 39% 29.71 in 10.0 mi WNW 18.4 mph 26.5 mph N/A   Mostly Cloudy
2:51 PM 27.0 °F 12.8 °F 5.0 °F 39% 29.71 in 10.0 mi WNW 21.9 mph 36.8 mph N/A   Mostly Cloudy
3:51 PM 27.0 °F 12.8 °F 5.0 °F 39% 29.73 in 10.0 mi WNW 21.9 mph 31.1 mph N/A   Mostly Cloudy
4:51 PM 25.0 °F 11.7 °F 6.1 °F 45% 29.76 in 10.0 mi WNW 17.3 mph 25.3 mph N/A   Scattered Clouds
5:51 PM 23.0 °F 9.6 °F 5.0 °F 46% 29.79 in 10.0 mi WNW 16.1 mph 25.3 mph N/A   Partly Cloudy
6:51 PM 21.9 °F 9.2 °F 1.9 °F 42% 29.82 in 10.0 mi NW 13.8 mph 34.5 mph N/A   Clear
7:51 PM 21.0 °F 8.1 °F 3.0 °F 46% 29.86 in 10.0 mi WNW 13.8 mph 21.9 mph N/A   Scattered Clouds
8:51 PM 19.9 °F 5.2 °F 1.9 °F 46% 29.88 in 10.0 mi WNW 17.3 mph 28.8 mph N/A   Partly Cloudy
9:51 PM 19.0 °F 8.2 °F 3.0 °F 50% 29.91 in 10.0 mi NW 9.2 mph 17.3 mph N/A   Partly Cloudy
10:51 PM 19.9 °F 7.9 °F 3.0 °F 48% 29.91 in 10.0 mi NW 11.5 mph - N/A   Mostly Cloudy
11:51 PM 19.9 °F 12.1 °F 3.9 °F 50% 29.91 in 10.0 mi NW 5.8 mph - N/A   Mostly Cloudy